CW0728 Weather Reports


time (UTC)temp
C
wind
direction
speed
KPH
gust
KPH
rain 1hr
cm
rain 24hr
cm
rain mn
cm
humidity
%
barometer
mb
20260510211534 14 220 0.0 0.0 0.08 0.89 0.36 89 1010.2
20260510210010 15 147 0.0 0.0 0.33 0.91 0.36 93 1010.1
20260510204551 13 201 0.0 0.0 0.33 0.91 0.36 93 1010.2
20260510203022 12 209 0.0 0.0 0.33 0.91 0.36 90 1010.6
20260510201509 12 203 0.0 4.8 0.25 0.84 0.28 87 1010.5
20260510200048 13 91 1.6 9.7 0.00 0.69 0.03 81 1011.1
20260510194521 14 159 0.0 9.7 0.00 0.69 0.03 81 1009.9
20260510193106 14 259 3.2 12.9 0.00 0.69 0.03 82 1009.7
20260510191536 14 219 0.0 9.7 0.00 0.69 0.03 82 1010.0
20260510190016 14 227 3.2 11.3 0.00 0.94 0.03 80 1010.0
20260510184552 15 183 3.2 12.9 0.00 0.94 0.03 81 1010.1
20260510183029 13 145 3.2 9.7 0.00 0.94 0.03 82 1010.5
20260510181528 14 213 0.0 19.3 0.00 0.94 0.03 82 1010.6
20260510180104 13 244 1.6 11.3 0.00 1.14 0.03 84 1010.7
20260510174530 13 247 3.2 16.1 0.00 1.14 0.03 81 1010.8
20260510173008 15 163 3.2 14.5 0.03 1.14 0.03 78 1010.8
20260510171543 14 42 1.6 14.5 0.03 1.14 0.03 82 1010.9
20260510170021 13 134 1.6 8.0 0.03 1.17 0.03 83 1010.9
20260510164600 13 235 4.8 12.9 0.03 1.17 0.03 81 1010.8
20260510163044 15 210 3.2 12.9 0.00 1.14 0.00 79 1010.9
20260510161517 14 194 0.0 8.0 0.00 1.14 0.00 82 1011.0
20260510160054 13 110 1.6 9.7 0.00 1.14 0.00 82 1011.1
20260510154542 13 228 1.6 11.3 0.00 1.14 0.00 83 1011.2
20260510153018 12 179 1.6 12.9 0.00 1.14 0.00 86 1011.4
20260510151557 13 226 1.6 11.3 0.00 1.14 0.00 85 1011.4
20260510150025 12 202 3.2 9.7 0.00 1.14 0.00 87 1011.5
20260510144609 12 230 0.0 12.9 0.00 1.14 0.00 88 1011.4
20260510143051 11 91 0.0 11.3 0.00 1.14 0.00 89 1011.6
20260510141520 11 159 1.6 6.4 0.00 1.14 0.00 91 1011.5
20260510140057 11 147 0.0 8.0 0.00 1.14 0.00 92 1011.4
20260510134536 11 80 0.0 9.7 0.00 1.14 0.00 93 1011.3
20260510133009 11 252 0.0 4.8 0.00 1.14 0.00 94 1011.4
20260510131549 11 192 0.0 0.0 0.00 1.14 0.00 95 1011.4
20260510130017 10 221 0.0 0.0 0.00 1.14 0.00 95 1011.5
20260510124559 10 190 0.0 0.0 0.00 1.14 0.00 95 1011.7
20260510123041 10 215 0.0 0.0 0.00 1.14 0.00 95 1011.5
20260510121535 10 199 0.0 0.0 0.00 1.14 0.00 95 1011.4
20260510120002 9 229 0.0 0.0 0.00 1.14 0.00 95 1011.5
20260510114548 9 211 0.0 4.8 0.00 1.14 0.00 96 1011.2
20260510113022 9 161 0.0 0.0 0.00 1.14 0.00 95 1011.0
20260510111556 8 230 0.0 0.0 0.00 1.14 0.00 95 1011.1
20260510110034 8 196 0.0 0.0 0.00 1.14 0.00 95 1010.6
20260510104522 8 166 0.0 0.0 0.00 1.14 0.00 95 1010.5
20260510103010 8 171 0.0 0.0 0.00 1.14 0.00 95 1010.4
20260510101541 8 167 0.0 0.0 0.00 1.14 0.00 95 1010.3
20260510100030 8 146 0.0 0.0 0.00 1.14 0.00 95 1010.5
20260510094518 8 165 0.0 0.0 0.00 1.14 0.00 95 1010.2
20260510093005 8 190 0.0 0.0 0.00 1.14 0.00 95 1010.3
20260510091545 8 193 0.0 0.0 0.00 1.14 0.00 95 1010.2
20260510090028 8 180 0.0 0.0 0.00 1.14 0.00 95 1010.4
20260510084506 8 175 0.0 0.0 0.00 1.14 0.00 95 1010.2
20260510083044 8 192 0.0 0.0 0.00 1.14 0.00 95 1009.8
20260510081521 8 212 0.0 0.0 0.00 1.14 0.00 95 1010.3
20260510080104 8 215 0.0 0.0 0.00 1.14 0.00 95 1010.1
20260510074542 8 228 0.0 0.0 0.00 1.14 0.00 95 1010.2
20260510073015 8 160 0.0 0.0 0.00 1.14 0.00 95 1009.9
20260510071549 8 159 0.0 0.0 0.00 1.14 0.00 95 1009.9
20260510070035 8 174 0.0 0.0 0.00 1.14 0.00 95 1010.3
20260510064532 8 148 0.0 0.0 0.00 1.14 0.00 95 1010.5
20260510063050 8 225 0.0 0.0 0.00 1.14 0.00 95 1010.6
20260510061526 8 167 0.0 0.0 0.00 1.14 0.00 95 1010.8
20260510060008 8 115 0.0 0.0 0.00 1.14 0.00 95 1010.7
20260510054544 8 113 0.0 0.0 0.00 1.14 0.00 95 1011.0
20260510053036 8 216 0.0 0.0 0.00 1.14 0.00 95 1011.1
20260510051557 8 182 0.0 0.0 0.00 1.14 0.00 95 1011.2
20260510050039 7 207 0.0 0.0 0.00 1.14 0.00 95 1011.1
20260510044511 7 207 0.0 0.0 0.00 1.14 0.00 94 1011.1
20260510043048 7 236 0.0 0.0 0.00 1.14 0.00 94 1011.3
20260510041524 7 276 0.0 0.0 0.00 1.14 0.00 94 1011.5
20260510040007 7 276 0.0 0.0 0.00 1.14 1.14 94 1011.5
20260510034559 7 276 0.0 0.0 0.00 1.14 1.14 94 1011.7
20260510033020 7 277 0.0 0.0 0.00 1.14 1.14 95 1011.8
20260510031555 7 360 0.0 0.0 0.03 1.14 1.14 94 1011.9
20260510030034 7 360 0.0 0.0 0.05 1.14 1.14 94 1012.0
20260510024509 7 360 0.0 0.0 0.05 1.14 1.14 94 1012.0
20260510023048 7 360 0.0 0.0 0.05 1.14 1.14 94 1012.1
20260510021529 7 360 0.0 0.0 0.05 1.12 1.12 94 1012.0
20260510020007 7 360 0.0 0.0 0.03 1.09 1.09 94 1012.2
20260510014551 7 360 0.0 0.0 0.05 1.09 1.09 94 1012.1
20260510013022 7 360 0.0 0.0 0.05 1.09 1.09 94 1012.2
20260510011601 7 63 0.0 0.0 0.05 1.07 1.07 94 1011.8
20260510010039 7 106 0.0 0.0 0.10 1.07 1.07 94 1011.7
20260510004514 6 182 0.0 0.0 0.10 1.04 1.04 94 1011.8
20260510003104 6 100 0.0 0.0 0.13 1.04 1.04 94 1011.6
20260510001527 6 79 0.0 0.0 0.10 0.99 0.99 93 1011.9
20260510000003 6 74 0.0 0.0 0.13 0.97 0.97 93 1012.0
20260509234542 6 75 0.0 0.0 0.10 0.94 0.94 93 1012.1
20260509233021 6 109 0.0 0.0 0.10 0.89 0.89 93 1011.9
20260509231616 6 101 0.0 0.0 0.13 0.89 0.89 93 1011.8
20260509230033 6 184 0.0 0.0 0.13 0.84 0.84 93 1011.9
20260509224521 6 86 0.0 0.0 0.15 0.84 0.84 93 1011.9
20260509223010 6 69 1.6 11.3 0.13 0.79 0.79 92 1012.0
20260509221551 6 80 0.0 4.8 0.13 0.76 0.76 92 1012.2
20260509220026 6 94 0.0 0.0 0.10 0.71 0.71 92 1012.5
20260509214605 6 119 0.0 0.0 0.08 0.69 0.69 92 1012.6
20260509213039 7 113 0.0 0.0 0.08 0.66 0.66 92 1013.0